Simultaneous Nadir Overpasses (SNOs) Predictions

Prediction of SNOs near equator between AQUA and NPP Satellite Orbit:

Table of predicted SNOs near equator for the next 14.0 days since TLE Epoch: 3/28/2015
Index Date (AQUA) Time (AQUA) AQUA Lat,Lon Date (NPP) Time (NPP) NPP Lat,Lon Distance(km) Time Diff (sec)
1 03/29/2015 13:15:25 -29.98,-179.48 03/29/2015 13:05:56 -30.08,-178.85 61.19 569
2 03/29/2015 14:04:55 29.95, -11.85 03/29/2015 13:56:43 30.00, -11.53 30.79 492
3 03/29/2015 14:54:18 -29.97, 155.80 03/29/2015 14:47:24 -29.98, 155.80 0.64 414
4 03/29/2015 15:36:07 2.13, -30.21 03/29/2015 15:30:18 2.13, -30.22 0.99 349
5 03/29/2015 16:21:15 13.22, 140.75 03/29/2015 16:16:37 13.25, 140.58 18.47 278
6 03/29/2015 17:09:31 -17.74, -50.62 03/29/2015 17:06:08 -17.83, -51.05 46.48 203
7 03/29/2015 17:57:37 22.34, 118.11 03/29/2015 17:55:30 22.46, 117.41 72.68 127
8 03/29/2015 18:45:53 -26.84, -73.18 03/29/2015 18:45:01 -27.01, -74.13 96.08 52
9 04/01/2015 05:31:55 -30.00, -63.61 04/01/2015 05:22:47 -30.11, -63.09 51.77 548
10 04/01/2015 06:21:25 29.97, 104.02 04/01/2015 06:13:34 30.02, 104.23 21.40 471
11 04/01/2015 07:08:33 -21.88, -86.32 04/01/2015 07:01:56 -21.88, -86.32 0.21 397
12 04/01/2015 07:49:41 -8.48, 87.93 04/01/2015 07:44:08 -8.49, 87.93 0.30 333
13 04/01/2015 08:37:25 14.40,-103.12 04/01/2015 08:33:07 14.46,-103.36 27.50 258
14 04/01/2015 09:25:40 -18.99, 65.54 04/01/2015 09:22:37 -19.10, 65.03 54.90 183
15 04/01/2015 10:13:47 23.52,-125.74 04/01/2015 10:12:00 23.66,-126.51 80.50 107
16 04/03/2015 20:59:01 29.94,-115.37 04/03/2015 20:49:01 30.34,-114.70 78.12 600
17 04/03/2015 21:48:24 -29.96, 52.28 04/03/2015 21:39:37 -30.02, 52.71 42.24 527
18 04/03/2015 22:37:55 30.00,-140.11 04/03/2015 22:30:25 30.00,-139.98 11.84 450
19 04/03/2015 23:22:44 -13.53, 31.46 04/03/2015 23:16:25 -13.53, 31.46 0.86 379
20 04/04/2015 00:05:27 -11.11,-155.62 04/04/2015 00:00:14 -11.15,-155.68 8.15 313
21 04/04/2015 00:53:33 15.70, 13.05 04/04/2015 00:49:36 15.77, 12.72 36.65 237
22 04/04/2015 01:41:49 -20.22,-178.29 04/04/2015 01:39:07 -20.35,-178.89 63.56 162
23 04/04/2015 02:29:55 24.81, -9.54 04/04/2015 02:28:29 24.97, -10.40 88.30 86
24 04/06/2015 13:15:30 29.98, 0.50 04/06/2015 13:05:48 30.10, 1.14 62.81 582
25 04/06/2015 14:04:53 -29.99, 168.16 04/06/2015 13:56:29 -30.07, 168.48 32.09 504
26 04/06/2015 14:54:23 29.97, -24.22 04/06/2015 14:47:16 29.99, -24.20 2.37 427
27 04/06/2015 15:36:21 -3.18, 149.59 04/06/2015 15:30:20 -3.18, 149.58 0.63 361
28 04/06/2015 16:21:33 -12.47, -39.44 04/06/2015 16:16:42 -12.51, -39.59 17.62 291
29 04/06/2015 17:09:40 17.00, 129.23 04/06/2015 17:06:05 17.08, 128.80 46.07 215
30 04/06/2015 17:57:55 -21.57, -62.09 04/06/2015 17:55:35 -21.71, -62.78 72.23 140
31 04/06/2015 18:46:02 26.10, 106.66 04/06/2015 18:44:58 26.27, 105.71 96.26 64
32 04/09/2015 05:31:57 29.95, 116.40 04/09/2015 05:22:39 30.09, 116.92 52.51 558
